Simultaneous Nadir Overpasses (SNOs) Predictions

Prediction of SNOs between GOES-17 and NOAA-20 Satellite Orbit:

Table of predicted SNOs for the next 14.0 days since TLE Epoch: 6/29/2024
Index Date Time (GOES-17) GOES-17 Lat,Lon NOAA-20 Lat,Lon Distance(km) Time Diff (sec)
1 06/29/2024 08:38:27 0.02,-104.71 0.74,-108.01 376.37 80
2 06/30/2024 08:17:02 0.02,-104.71 -0.24,-103.48 139.69 80
3 07/01/2024 20:39:01 0.02,-104.72 -0.89,-108.80 465.62 80
4 07/02/2024 20:22:56 0.02,-104.72 0.09,-104.27 50.54 80
5 07/05/2024 08:26:01 -0.02,-104.72 0.07,-105.02 35.56 80
6 07/06/2024 08:04:38 -0.02,-104.72 -0.98,-100.50 480.47 80
7 07/07/2024 20:26:35 0.01,-104.73 -0.21,-105.82 123.82 80
8 07/08/2024 20:10:30 0.01,-104.73 0.78,-101.28 392.74 80
9 07/10/2024 08:32:19 -0.00,-104.73 0.40,-106.56 208.07 80
10 07/11/2024 08:10:54 0.00,-104.74 -0.59,-102.03 308.60 80
11 07/12/2024 20:32:52 -0.00,-104.75 -0.59,-107.34 295.30 80
